T 2005 Aug. 9.7453 TT MPC q 0.525791 (2000.0) P Q z +0.023832 Peri. 32.1488 -0.3849363 +0.2473365 Node 242.7724 -0.9035435 +0.0955034 e 0.987469 Incl. 89.7049 +0.1882370 +0.9642115 >From 54 observations 2005 Aug. 26-Sept. 24.
m1 = 11.0 + 5 logΔ + 10.0 log r [ ,63] ( 〜2005年10月11日) m1 = 5.3 + 5 logΔ + 50 log r [63, ] (2005年10月11日〜 )